TimePST,TemperatureF,Dew PointF,Humidity,Sea Level PressureIn,VisibilityMPH,Wind Direction,Wind SpeedMPH,Gust SpeedMPH,PrecipitationIn,Events,Conditions,WindDirDegrees,DateUTC
12:53 AM,26.1,21.9,84,30.04,10.0,SSW,6.9,-,N/A,,Clear,200,2013-02-21 08:53:00
1:53 AM,28.0,24.1,85,30.05,10.0,South,6.9,-,N/A,,Scattered Clouds,180,2013-02-21 09:53:00
2:53 AM,33.1,28.0,82,30.05,10.0,South,5.8,-,N/A,,Overcast,170,2013-02-21 10:53:00
3:53 AM,30.9,27.0,85,30.05,10.0,South,3.5,-,N/A,,Mostly Cloudy,180,2013-02-21 11:53:00
4:53 AM,32.0,27.0,82,30.06,10.0,South,8.1,-,N/A,,Scattered Clouds,190,2013-02-21 12:53:00
5:53 AM,35.1,28.9,78,30.06,10.0,SSW,6.9,-,N/A,,Overcast,200,2013-02-21 13:53:00
6:53 AM,32.0,27.0,82,30.05,10.0,South,5.8,-,N/A,,Clear,190,2013-02-21 14:53:00
7:53 AM,37.9,28.9,70,30.06,10.0,WSW,5.8,-,N/A,,Overcast,240,2013-02-21 15:53:00
8:53 AM,42.1,30.9,65,30.07,10.0,West,8.1,-,N/A,,Clear,260,2013-02-21 16:53:00
9:53 AM,45.0,30.9,58,30.08,10.0,WSW,19.6,25.3,N/A,,Scattered Clouds,250,2013-02-21 17:53:00
10:53 AM,46.9,30.9,54,30.08,10.0,WSW,23.0,32.2,N/A,,Clear,250,2013-02-21 18:53:00
11:53 AM,46.0,30.0,54,30.09,10.0,WSW,21.9,31.1,N/A,,Overcast,250,2013-02-21 19:53:00
12:53 PM,46.9,30.0,52,30.09,10.0,WSW,20.7,26.5,N/A,,Overcast,240,2013-02-21 20:53:00
1:53 PM,45.0,30.9,58,30.07,10.0,SSW,10.4,20.7,0.00,,Overcast,210,2013-02-21 21:53:00
2:53 PM,46.9,30.0,52,30.06,10.0,SW,9.2,-,N/A,,Overcast,230,2013-02-21 22:53:00
3:53 PM,48.9,30.9,50,30.06,10.0,SW,11.5,-,N/A,,Scattered Clouds,230,2013-02-21 23:53:00
4:53 PM,46.0,30.0,54,30.06,10.0,WSW,6.9,-,N/A,,Partly Cloudy,250,2013-02-22 00:53:00
5:53 PM,46.0,30.9,56,30.06,10.0,SW,5.8,-,N/A,,Overcast,230,2013-02-22 01:53:00
6:53 PM,44.1,32.0,63,30.08,10.0,SW,8.1,-,0.00,,Overcast,230,2013-02-22 02:53:00
7:53 PM,42.1,30.9,65,30.07,10.0,SW,9.2,-,N/A,,Partly Cloudy,230,2013-02-22 03:53:00
8:53 PM,39.0,30.9,73,30.07,10.0,South,4.6,-,N/A,,Overcast,180,2013-02-22 04:53:00
9:53 PM,37.9,30.0,73,30.08,10.0,SSW,8.1,-,N/A,,Scattered Clouds,200,2013-02-22 05:53:00
11:53 PM,37.9,30.0,73,30.08,10.0,SSW,6.9,-,N/A,,Scattered Clouds,210,2013-02-22 07:53:00